Hourly Weather Roundup
Issued by NWS Central Illinois

Home | Current Version | Previous Version | Text Only | Print | Product List | Glossary On
Versions: 1 2 3 4 5 6 7 8 9 10 11 12 13 14 15 16 17 18 19 20 21 22 23 24 25 26 27 28 29 30 31 32 33 34 35 36 37 38 39 40 41 42 43 44 45 46 47 48 49 50
000
NZUS43 KILX 300210
HWRILX

AREA WEATHER ROUNDUP
NATIONAL WEATHER SERVICE, LINCOLN IL
900 PM CDT WED JUL 29 2015


CITY           SKY/WX    TMP DP  RH WIND       PRES   REMARKS
BLOOMINGTON    CLEAR     73  62  68 NW9       30.08R
CHAMPAIGN      CLEAR     69  64  84 MISG      30.06R
DANVILLE       PTCLDY    70  63  78 NW6       30.01R
DECATUR        CLEAR     76  58  53 NW8       30.07R
EFFINGHAM      MOCLDY    77  61  57 NW7       30.06R
FLORA          CLOUDY    78  69  73 NW5       30.05R HX  81
GALESBURG      CLEAR     72  62  70 SW6       30.08R
JACKSONVILLE   CLEAR     72  65  77 W5        30.09R
LACON          CLEAR     72  62  68 CALM      30.04R
LAWRENCEVILLE  CLOUDY    77  68  73 NW8       30.03R
LITCHFIELD     PTCLDY    69  64  82 NW6       30.08R
$$


CITY           SKY/WX    TMP DP  RH WIND       PRES   REMARKS
LINCOLN        CLEAR     76  59  54 CALM      30.07R
MACOMB         CLEAR     69  66  89 W5        30.10S
MATTOON        PTCLDY    70  61  73 NW7       30.04R
MT CARMEL AP   CLOUDY    81  68  65 N6        30.03R HX  83
OLNEY-NOBLE AP MOCLDY    77  70  78 NW3       30.05R
PARIS          PTCLDY    72  64  75 NW3       30.05R
PEORIA         CLEAR     75  62  64 W5        30.06R
PONTIAC        CLEAR     70  66  85 W7        30.05R
RANTOUL        CLEAR     73  63  69 NW8       30.06R
ROBINSON       MOCLDY    76  68  76 NW6       30.04R
SPRINGFIELD    CLEAR     73  60  63 W6        30.08R
TAYLORVILLE    CLEAR     68  61  77 NW5       30.08R
$$

...REGIONAL REPORTS...


CITY           SKY/WX    TMP DP  RH WIND       PRES   REMARKS
CHICAGO O`HARE PTCLDY    77  55  46 W8        29.99R
KANKAKEE       CLEAR     71  65  79 W5        30.04R
MOLINE         CLEAR     72  59  63 SW5       30.05R
MOUNT STERLING NOT AVBL
MOUNT VERNON   CLOUDY    81  66  61 N5        30.06R HX  83
PITTSFIELD     CLEAR     74  64  69 CALM      30.11R
QUINCY         CLEAR     75  62  64 W3        30.10R
ROCKFORD       CLEAR     73  58  59 SW5       30.02R
$$


CITY           SKY/WX    TMP DP  RH WIND       PRES   REMARKS
BURLINGTON     CLEAR     72  64  76 W3        30.08S
CEDAR RAPIDS   CLEAR     68  63  84 W8        30.06R
DES MOINES     PTCLDY    74  61  63 W8        30.10S
KIRKSVILLE     CLEAR     69  65  86 CALM      30.14R
OTTUMWA        CLEAR     69  65  86 W6        30.09R
ST LOUIS       NOT AVBL
$$


CITY           SKY/WX    TMP DP  RH WIND       PRES   REMARKS
TERRE HAUTE    MOCLDY    77  63  61 N7        30.03R
EVANSVILLE     CLOUDY    82  77  84 N3        30.02R HX  90
INDIANAPOLIS   MOCLDY    78  65  63 NW13      30.00R HX  80
LAFAYETTE      PTCLDY    71  60  68 W3        30.01R
MADISON        CLEAR     75  52  44 VRB3      29.98R
MILWAUKEE      PTCLDY    79  51  37 W9        29.95R
$$





USA.gov is the U.S. government's official web portal to all federal, state and local government web resources and services.